QPF
0.00 0.00 0.00 0.00 0.00 0.00 0.00 0.00 0.00 0.00 0.00 0.00 0.00 0.00 0.00 0.00 0.00 0.00 0.00 0.00 0.00 0.00 0.00 0.00 0.00 0.00 0.00 0.00 0.00 0.00 0.00 0.00 0.00 0.00 0.00 0.00 0.00 0.00 0.00 0.00 0.00 0.00 0.00 0.00 0.00
0.00 0.00 0.00 0.00 0.00 0.00 0.00 0.00 0.00 0.00 0.00 0.00 0.00 0.00 0.00 0.00 0.00 0.00 0.00 0.00 0.00 0.00 0.00 0.00 0.00 0.00 0.00 0.00 0.00 0.00 0.00 0.00 0.00 0.00 0.00 0.00 0.00 0.00 0.00 0.00 0.00 0.00 0.00 0.00 0.00
0.00 0.00 0.00 0.00 0.00 0.00 0.00 0.00 0.00 0.00 0.00 0.00 0.00 0.00 0.00 0.00 0.00 0.00 0.00 0.00 0.00 0.00 0.00 0.00 0.00 0.00 0.00 0.00 0.00 0.00 0.00 0.00 0.00 0.00 0.00 0.00 0.00 0.00 0.00 0.00 0.00 0.00 0.00 0.00 0.00
0.00 0.00 0.00 0.00 0.00 0.00 0.00 0.00 0.00 0.00 0.00 0.00 0.00 0.00 0.00 0.00 0.00 0.00 0.00 0.00 0.00 0.00 0.00 0.00 0.00 0.00 0.00 0.00 0.00 0.00 0.00 0.00 0.00 0.00 0.00 0.00 0.00 0.00 0.00 0.00 0.00 0.00 0.00 0.00 0.00
0.00 0.00 0.00 0.00 0.00 0.00 0.00 0.00 0.01 0.00 0.00 0.00 0.00 0.00 0.00 0.00 0.00 0.00 0.00 0.00 0.00 0.00 0.00 0.00 0.00 0.00 0.00 0.00 0.00 0.00 0.00 0.00 0.00 0.00 0.00 0.00 0.00 0.00 0.00 0.00 0.00 0.00 0.00 0.00 0.00
0.00 0.00 0.00 0.00 0.00 0.00 0.00 0.01 0.01 0.01 0.01 0.00 0.00 0.00 0.00 0.00 0.00 0.00 0.00 0.00 0.00 0.00 0.00 0.00 0.00 0.00 0.00 0.00 0.00 0.00 0.00 0.00 0.00 0.00 0.00 0.00 0.00 0.00 0.00 0.00 0.00 0.00 0.00 0.00 0.00
0.00 0.00 0.00 0.00 0.00 0.00 0.00 0.00 0.02 0.05 0.07 0.05 0.00 0.00 0.00 0.00 0.00 0.00 0.00 0.00 0.00 0.00 0.00 0.00 0.00 0.00 0.00 0.00 0.00 0.00 0.00 0.00 0.00 0.00 0.00 0.00 0.00 0.00 0.00 0.00 0.00 0.00 0.00 0.00 0.00
0.00 0.00 0.00 0.00 0.00 0.00 0.00 0.00 0.00 0.01 0.09 0.16 0.06 0.00 0.00 0.00 0.00 0.00 0.00 0.00 0.00 0.00 0.00 0.00 0.00 0.00 0.00 0.00 0.00 0.00 0.00 0.00 0.00 0.00 0.00 0.00 0.00 0.00 0.00 0.00 0.00 0.00 0.00 0.00 0.00
0.00 0.00 0.00 0.00 0.00 0.00 0.00 0.00 0.00 0.01 0.07 0.21 0.14 0.01 0.00 0.00 0.00 0.00 0.00 0.00 0.00 0.00 0.00 0.00 0.00 0.00 0.00 0.00 0.00 0.00 0.00 0.00 0.00 0.00 0.00 0.00 0.00 0.00 0.00 0.00 0.00 0.00 0.00 0.00 0.00
0.01 0.00 0.00 0.00 0.00 0.00 0.00 0.00 0.00 0.00 0.07 0.35 0.26 0.05 0.00 0.00 0.00 0.00 0.00 0.00 0.00 0.00 0.00 0.00 0.00 0.00 0.00 0.00 0.00 0.00 0.00 0.00 0.00 0.00 0.00 0.00 0.00 0.00 0.00 0.00 0.00 0.00 0.00 0.00 0.00
0.00 0.01 0.00 0.00 0.00 0.00 0.00 0.01 0.01 0.01 0.05 0.10 0.10 0.01 0.00 0.00 0.00 0.00 0.00 0.00 0.00 0.00 0.00 0.00 0.00 0.00 0.00 0.00 0.00 0.00 0.00 0.00 0.00 0.00 0.00 0.00 0.00 0.00 0.00 0.00 0.00 0.00 0.00 0.00 0.00
0.00 0.00 0.00 0.00 0.00 0.00 0.00 0.01 0.01 0.02 0.03 0.01 0.00 0.00 0.00 0.00 0.00 0.00 0.00 0.00 0.00 0.00 0.00 0.00 0.00 0.00 0.00 0.00 0.00 0.00 0.00 0.00 0.00 0.00 0.00 0.00 0.00 0.00 0.00 0.00 0.00 0.00 0.00 0.00 0.00
0.01 0.01 0.00 0.00 0.00 0.00 0.00 0.00 0.01 0.04 0.08 0.02 0.01 0.01 0.00 0.00 0.00 0.00 0.00 0.00 0.00 0.00 0.00 0.00 0.00 0.00 0.00 0.00 0.00 0.00 0.00 0.00 0.00 0.00 0.00 0.00 0.00 0.00 0.00 0.00 0.00 0.00 0.00 0.00 0.00
0.00 0.01 0.01 0.00 0.00 0.00 0.00 0.00 0.00 0.07 0.08 0.03 0.02 0.02 0.00 0.00 0.00 0.00 0.00 0.00 0.00 0.00 0.00 0.00 0.00 0.00 0.00 0.00 0.00 0.00 0.00 0.00 0.00 0.00 0.00 0.00 0.00 0.00 0.00 0.00 0.00 0.00 0.00 0.00 0.00
0.00 0.00 0.01 0.02 0.00 0.00 0.00 0.00 0.03 0.20 0.18 0.01 0.00 0.00 0.00 0.00 0.00 0.00 0.00 0.00 0.00 0.00 0.00 0.00 0.00 0.00 0.00 0.00 0.00 0.00 0.00 0.00 0.00 0.00 0.00 0.00 0.00 0.00 0.00 0.00 0.00 0.00 0.00 0.00 0.00
0.00 0.00 0.02 0.01 0.00 0.00 0.00 0.00 0.05 0.20 0.23 0.03 0.00 0.00 0.00 0.00 0.00 0.00 0.00 0.00 0.00 0.00 0.00 0.00 0.00 0.00 0.00 0.00 0.00 0.00 0.00 0.00 0.00 0.00 0.00 0.00 0.00 0.00 0.00 0.00 0.00 0.00 0.00 0.00 0.00
0.00 0.01 0.02 0.00 0.00 0.00 0.00 0.01 0.07 0.20 0.10 0.03 0.00 0.00 0.00 0.00 0.00 0.00 0.00 0.00 0.01 0.01 0.01 0.00 0.00 0.00 0.00 0.00 0.00 0.00 0.00 0.00 0.00 0.00 0.00 0.00 0.00 0.00 0.00 0.00 0.00 0.00 0.00 0.00 0.00
0.04 0.04 0.01 0.00 0.01 0.03 0.00 0.03 0.08 0.02 0.02 0.06 0.01 0.01 0.00 0.00 0.00 0.00 0.00 0.00 0.00 0.00 0.00 0.00 0.00 0.00 0.00 0.00 0.00 0.00 0.00 0.00 0.00 0.00 0.00 0.00 0.00 0.00 0.00 0.00 0.00 0.00 0.00 0.00 0.00
0.05 0.02 0.00 0.00 0.06 0.08 0.01 0.06 0.04 0.00 0.00 0.00 0.02 0.07 0.03 0.00 0.00 0.00 0.00 0.00 0.00 0.00 0.00 0.00 0.00 0.00 0.00 0.00 0.00 0.00 0.00 0.00 0.00 0.00 0.00 0.00 0.00 0.00 0.00 0.00 0.00 0.00 0.00 0.00 0.00
0.04 0.00 0.00 0.00 0.02 0.02 0.06 0.03 0.00 0.00 0.01 0.02 0.02 0.07 0.08 0.01 0.00 0.00 0.00 0.00 0.00 0.00 0.00 0.00 0.00 0.00 0.00 0.00 0.00 0.00 0.00 0.00 0.00 0.00 0.00 0.00 0.00 0.00 0.00 0.00 0.00 0.00 0.00 0.00 0.00
0.03 0.02 0.00 0.00 0.01 0.03 0.04 0.00 0.00 0.00 0.00 0.05 0.05 0.06 0.07 0.04 0.01 0.00 0.00 0.00 0.00 0.00 0.00 0.00 0.00 0.00 0.00 0.00 0.00 0.00 0.00 0.00 0.00 0.00 0.00 0.00 0.00 0.00 0.00 0.00 0.00 0.00 0.00 0.00 0.00
0.06 0.05 0.00 0.00 0.03 0.03 0.00 0.00 0.00 0.00 0.00 0.02 0.06 0.06 0.11 0.15 0.12 0.02 0.00 0.00 0.00 0.00 0.00 0.00 0.00 0.00 0.00 0.00 0.00 0.01 0.00 0.00 0.00 0.00 0.00 0.00 0.00 0.00 0.00 0.00 0.00 0.00 0.00 0.00 0.00
0.08 0.05 0.01 0.02 0.04 0.01 0.00 0.00 0.00 0.00 0.00 0.00 0.03 0.07 0.08 0.05 0.20 0.13 0.02 0.00 0.00 0.00 0.00 0.00 0.01 0.03 0.04 0.03 0.03 0.04 0.01 0.00 0.00 0.00 0.00 0.00 0.00 0.00 0.00 0.00 0.00 0.00 0.00 0.00 0.00
0.07 0.08 0.06 0.05 0.02 0.01 0.01 0.00 0.00 0.00 0.00 0.00 0.00 0.00 0.05 0.11 0.09 0.15 0.10 0.02 0.00 0.00 0.00 0.00 0.00 0.03 0.04 0.03 0.02 0.01 0.01 0.01 0.01 0.01 0.00 0.00 0.00 0.00 0.00 0.00 0.00 0.00 0.00 0.00 0.00
0.11 0.05 0.01 0.02 0.01 0.00 0.00 0.00 0.00 0.00 0.00 0.00 0.00 0.00 0.02 0.06 0.16 0.15 0.07 0.02 0.00 0.00 0.00 0.01 0.06 0.04 0.01 0.00 0.00 0.00 0.00 0.00 0.01 0.00 0.00 0.00 0.00 0.00 0.00 0.00 0.00 0.00 0.00 0.00 0.00
0.11 0.04 0.02 0.01 0.00 0.00 0.01 0.01 0.00 0.00 0.01 0.00 0.00 0.00 0.00 0.02 0.05 0.20 0.20 0.11 0.08 0.02 0.01 0.02 0.14 0.03 0.01 0.00 0.00 0.00 0.00 0.00 0.00 0.00 0.00 0.00 0.00 0.00 0.00 0.00 0.00 0.00 0.00 0.00 0.00
0.02 0.01 0.04 0.05 0.01 0.01 0.01 0.00 0.00 0.00 0.00 0.00 0.00 0.01 0.02 0.02 0.01 0.02 0.13 0.26 0.25 0.14 0.07 0.04 0.07 0.09 0.10 0.00 0.00 0.06 0.05 0.00 0.00 0.00 0.00 0.00 0.00 0.00 0.00 0.00 0.00 0.00 0.00 0.00 0.00
MSLP
1015.85 1015.63 1015.54 1015.50 1015.36 1015.40 1015.51 1015.59 1015.61 1015.69 1015.84 1016.09 1016.18 1016.22 1015.98 1015.86 1015.54 1015.02 1014.14 1012.92 1012.62 1012.39 1012.35 1012.39 1012.26 1012.36 1012.52 1012.58 1012.77 1013.05 1012.82 1012.17 1011.58 1011.25 1010.13 1009.83 1009.57 1009.40 1009.09 1008.73 1008.74 1008.62 1008.62 1008.94 1009.30
1015.83 1015.61 1015.42 1015.29 1015.37 1015.31 1015.15 1015.13 1015.26 1015.52 1015.57 1015.74 1015.98 1016.10 1016.07 1015.73 1015.60 1014.36 1012.63 1012.14 1012.23 1012.39 1012.38 1012.26 1012.22 1012.26 1012.41 1012.58 1012.68 1012.46 1012.45 1011.86 1011.24 1010.80 1010.16 1009.97 1009.76 1009.44 1009.23 1008.98 1008.87 1008.73 1008.76 1009.35 1009.56
1015.90 1015.56 1015.26 1015.06 1015.18 1015.24 1015.05 1014.89 1014.95 1015.08 1015.31 1015.56 1015.80 1015.94 1015.99 1015.87 1015.22 1012.95 1012.14 1011.89 1011.77 1012.16 1012.42 1012.09 1011.99 1012.15 1012.35 1012.48 1012.45 1012.34 1011.55 1011.42 1010.77 1010.57 1010.37 1010.05 1009.72 1009.48 1009.16 1008.71 1008.61 1008.55 1008.64 1009.01 1009.40
1015.78 1015.55 1015.21 1015.07 1015.03 1015.03 1014.94 1014.79 1014.68 1014.74 1014.92 1015.15 1015.62 1015.85 1015.87 1015.95 1014.47 1012.31 1012.19 1012.12 1011.90 1012.08 1012.34 1012.11 1011.89 1011.94 1012.15 1012.06 1011.90 1011.98 1011.23 1010.98 1010.51 1010.39 1010.34 1010.09 1009.71 1009.35 1008.90 1008.16 1008.26 1008.22 1008.57 1008.77 1008.98
1015.58 1015.49 1015.31 1015.08 1015.00 1014.89 1014.86 1014.68 1014.56 1014.42 1014.53 1014.87 1015.14 1015.65 1015.99 1015.51 1013.27 1011.71 1011.94 1012.13 1012.11 1012.24 1012.11 1011.98 1011.81 1011.61 1011.55 1011.63 1011.74 1011.53 1010.90 1010.76 1010.55 1010.38 1010.37 1010.31 1009.83 1009.56 1008.16 1008.19 1008.01 1008.15 1008.55 1008.68 1008.67
1015.37 1015.29 1015.32 1015.14 1014.87 1014.78 1014.53 1014.33 1014.38 1014.27 1014.11 1014.38 1014.87 1015.29 1015.69 1014.48 1012.28 1011.68 1011.94 1011.92 1012.08 1012.12 1012.00 1011.92 1011.62 1011.49 1011.34 1011.22 1011.24 1010.84 1010.70 1010.51 1010.41 1010.25 1010.12 1010.06 1009.66 1009.72 1007.66 1008.02 1008.00 1008.09 1008.06 1008.20 1008.37
1015.15 1015.04 1015.10 1015.04 1014.80 1014.56 1014.34 1014.16 1014.13 1014.09 1013.80 1013.90 1014.21 1014.73 1014.92 1012.00 1011.75 1011.75 1011.96 1012.06 1012.31 1012.41 1011.98 1011.71 1011.46 1011.52 1011.33 1011.14 1010.85 1010.71 1010.68 1010.37 1010.05 1009.92 1009.79 1009.74 1009.32 1008.58 1007.55 1008.07 1007.98 1008.03 1007.90 1007.93 1008.00
1014.85 1014.81 1014.88 1014.93 1014.71 1014.48 1014.22 1014.08 1013.96 1013.85 1013.73 1013.65 1013.90 1014.20 1012.82 1011.74 1011.71 1012.10 1011.88 1011.96 1011.96 1012.06 1012.14 1011.75 1011.61 1011.46 1011.41 1011.27 1011.04 1010.81 1010.79 1010.19 1009.21 1009.20 1009.22 1009.35 1007.82 1007.47 1007.59 1007.81 1007.92 1008.08 1008.16 1008.46 1008.57
1014.50 1014.55 1014.66 1014.67 1014.52 1014.38 1014.07 1013.80 1013.51 1013.47 1013.48 1013.54 1013.83 1013.77 1011.97 1010.93 1011.20 1011.65 1011.79 1011.67 1011.66 1011.63 1011.51 1011.59 1011.61 1011.42 1011.45 1011.39 1011.36 1010.92 1009.93 1009.95 1009.26 1008.83 1008.85 1008.84 1007.44 1006.98 1007.32 1007.61 1007.70 1008.00 1008.41 1008.73 1008.91
1014.22 1014.30 1014.38 1014.51 1014.46 1014.27 1013.95 1013.42 1013.10 1013.21 1013.19 1013.35 1013.13 1013.81 1011.49 1010.63 1010.71 1010.78 1011.17 1011.55 1011.55 1011.50 1011.46 1011.51 1011.56 1011.32 1011.18 1011.01 1009.47 1010.26 1010.27 1009.76 1009.05 1008.75 1008.75 1008.38 1007.50 1006.87 1007.07 1007.45 1007.51 1007.74 1008.39 1008.73 1008.92
1013.84 1013.99 1014.19 1014.34 1014.36 1014.36 1014.13 1013.37 1013.64 1013.32 1012.57 1010.98 1010.99 1010.41 1009.80 1009.51 1010.28 1010.35 1010.63 1011.08 1011.51 1011.49 1010.87 1011.08 1011.32 1009.87 1009.62 1009.96 1010.23 1010.37 1010.02 1009.37 1009.07 1009.04 1008.75 1007.85 1007.20 1006.85 1006.60 1006.92 1007.06 1007.46 1008.00 1008.43 1008.81
1013.53 1013.71 1013.93 1014.13 1014.26 1014.33 1014.41 1013.74 1012.31 1012.44 1011.64 1010.86 1010.59 1010.18 1009.69 1009.43 1010.32 1010.11 1010.31 1010.91 1010.74 1009.55 1010.44 1010.95 1009.02 1008.58 1010.05 1010.31 1010.50 1010.21 1009.87 1009.37 1009.60 1009.11 1008.91 1007.79 1006.36 1006.39 1006.30 1005.87 1006.24 1006.62 1007.33 1008.07 1008.52
1013.30 1013.48 1013.66 1013.86 1013.96 1014.11 1014.15 1013.55 1012.37 1012.62 1011.61 1009.75 1009.25 1009.30 1009.11 1009.76 1009.32 1009.43 1009.72 1009.81 1009.63 1009.72 1008.82 1008.23 1005.76 1008.83 1009.25 1009.55 1009.82 1009.27 1008.98 1009.36 1009.56 1009.35 1008.50 1008.16 1004.93 1004.94 1004.56 1005.09 1005.28 1005.74 1006.28 1007.16 1007.83
1013.10 1013.32 1013.54 1013.81 1014.27 1013.98 1013.77 1013.60 1012.99 1012.77 1011.75 1008.95 1008.20 1007.33 1008.44 1008.75 1008.50 1008.43 1008.63 1008.81 1008.95 1008.21 1008.54 1008.59 1007.47 1007.97 1008.06 1008.28 1009.14 1008.50 1008.88 1009.51 1009.74 1010.09 1008.58 1008.38 1003.88 1003.21 1003.93 1004.10 1004.56 1005.07 1005.82 1006.49 1007.40
1012.73 1013.07 1013.39 1013.78 1014.05 1014.01 1013.74 1013.39 1012.54 1012.39 1010.55 1006.91 1006.11 1005.90 1006.62 1007.46 1006.95 1007.50 1007.92 1008.12 1007.49 1007.61 1008.29 1006.12 1006.67 1007.26 1007.46 1007.00 1008.39 1007.26 1008.80 1009.21 1009.57 1009.64 1009.49 1007.61 1006.86 1002.55 1003.36 1003.32 1003.60 1004.11 1004.99 1005.87 1006.84
1012.52 1012.82 1013.16 1013.67 1013.97 1013.77 1013.50 1013.19 1012.73 1011.92 1007.85 1006.13 1005.41 1005.19 1006.04 1006.13 1005.86 1006.80 1006.93 1007.56 1007.16 1007.63 1007.29 1005.53 1006.16 1006.57 1005.61 1007.00 1007.44 1008.07 1008.74 1009.17 1009.63 1009.84 1008.81 1005.82 1006.77 998.90 1001.88 1002.29 1002.77 1003.42 1004.59 1005.64 1006.67
1012.10 1012.44 1012.82 1013.18 1013.63 1013.59 1013.36 1013.30 1012.99 1010.07 1007.28 1006.15 1005.09 1005.12 1004.84 1005.04 1005.70 1005.88 1005.95 1006.41 1005.62 1006.42 1006.40 1005.24 1005.68 1005.96 1006.00 1006.47 1006.95 1007.40 1008.29 1008.87 1009.47 1008.95 1005.87 1005.41 1005.69 997.65 1000.78 1001.00 1001.55 1002.40 1003.81 1005.26 1006.53
1011.75 1012.07 1012.36 1012.85 1013.08 1013.40 1013.83 1013.93 1011.62 1008.40 1007.26 1006.38 1005.21 1005.09 1004.65 1004.77 1004.94 1005.20 1005.17 1004.92 1005.16 1004.43 1004.65 1004.61 1004.36 1004.43 1004.24 1003.76 1004.46 1005.82 1006.46 1006.32 1006.19 1006.16 1005.00 1005.57 1002.76 998.58 1000.56 1000.94 1001.43 1002.26 1003.29 1004.91 1006.04
1011.37 1012.30 1012.45 1012.51 1012.70 1013.14 1013.80 1013.18 1010.84 1008.89 1007.36 1006.52 1005.77 1005.19 1004.36 1004.20 1004.17 1004.56 1003.83 1002.71 1002.51 1003.16 1002.97 1002.74 1002.11 1001.98 1002.29 1003.38 1003.96 1004.27 1005.37 1003.77 1006.21 1006.05 1005.02 1003.61 1000.85 1000.30 1001.02 1001.67 1001.94 1002.60 1003.58 1004.37 1005.46
1011.45 1011.87 1011.88 1011.87 1012.45 1013.03 1013.30 1012.11 1010.98 1009.45 1008.29 1007.63 1006.55 1005.98 1004.13 1003.59 1003.87 1003.44 1003.36 1002.21 1001.86 1001.93 1001.44 1000.99 1001.30 1000.96 1001.43 1002.74 1003.00 1003.22 1003.83 1005.72 1005.43 1004.89 1004.09 1002.03 1000.53 998.46 1000.29 1000.99 1001.62 1002.58 1003.15 1003.98 1005.28
1011.22 1011.75 1011.10 1011.46 1012.20 1012.87 1012.28 1011.40 1010.33 1009.31 1009.22 1008.65 1007.25 1006.03 1004.92 1004.27 1003.47 1002.62 1001.91 1001.41 1001.52 1001.28 1001.45 1000.96 1001.18 1000.49 1000.64 1000.47 1000.94 1002.33 1002.49 1003.53 1003.69 1003.68 1002.81 1001.41 999.30 998.32 999.10 1000.15 1000.78 1001.42 1002.31 1003.50 1004.51
1010.85 1011.23 1010.91 1010.99 1011.74 1011.34 1010.69 1010.08 1009.77 1008.91 1008.69 1008.25 1007.67 1007.36 1006.52 1005.67 1004.38 1002.51 1001.56 1000.37 999.82 999.91 1000.31 1000.36 1000.87 1000.26 999.62 999.23 999.56 1000.32 1001.12 1002.36 1002.33 1002.86 1002.06 1001.31 998.11 998.07 998.67 999.22 1000.01 1001.13 1002.29 1003.38 1004.41
1010.35 1010.61 1010.88 1010.52 1010.41 1010.45 1010.47 1010.03 1009.80 1009.16 1008.72 1008.21 1007.64 1007.32 1006.18 1006.10 1005.32 1003.35 1001.24 999.95 999.55 999.52 999.67 1000.03 1000.38 1000.33 1000.59 1000.37 1000.04 999.81 1000.09 1000.40 1001.13 1001.77 1000.99 1000.71 996.77 998.55 999.54 1000.06 1000.40 1001.00 1001.97 1003.39 1004.44
1009.86 1009.90 1009.98 1009.72 1009.46 1009.75 1009.86 1009.53 1009.15 1008.64 1008.31 1008.07 1007.18 1006.86 1006.18 1005.34 1005.51 1005.15 1003.40 1001.68 999.93 999.22 999.53 999.85 999.48 998.95 997.34 996.71 997.80 999.60 999.53 999.81 1000.06 1000.27 998.91 999.14 996.53 998.92 999.78 1000.32 1001.04 1001.59 1002.50 1003.54 1004.35
1008.62 1008.55 1008.29 1008.59 1008.62 1008.65 1008.88 1008.41 1008.38 1008.37 1007.87 1007.30 1006.67 1006.22 1005.70 1005.24 1004.42 1004.88 1004.32 1003.33 1001.41 999.17 999.22 999.87 999.05 998.89 997.85 997.69 997.78 997.34 998.21 998.25 998.24 997.94 997.85 996.34 996.46 997.16 998.78 1000.07 1000.59 1001.24 1002.63 1003.56 1004.24
1007.50 1007.80 1007.88 1007.40 1007.25 1007.49 1007.63 1007.45 1007.50 1007.17 1007.15 1006.14 1005.63 1005.40 1005.10 1004.48 1004.38 1002.90 1003.32 1003.31 1003.68 1001.53 999.43 999.25 998.86 999.28 997.94 997.73 998.27 997.55 997.42 997.33 996.90 996.46 996.43 995.23 995.42 996.05 997.84 998.94 1000.19 1001.09 1001.98 1002.52 1003.49
1006.76 1006.96 1007.10 1006.26 1006.38 1006.43 1005.97 1005.61 1005.57 1005.89 1005.30 1004.78 1004.68 1005.14 1004.47 1004.06 1004.14 1003.94 1003.73 1002.87 1002.87 1002.59 1002.13 1001.42 999.19 998.70 997.59 997.47 997.94 997.52 996.47 996.28 996.29 995.22 995.07 994.63 991.55 996.42 997.70 998.66 999.55 1000.26 1001.19 1001.84 1003.19
Thickness
5619 5623 5627 5631 5636 5640 5642 5646 5650 5654 5655 5656 5659 5663 5671 5677 5685 5695 5702 5712 5720 5726 5728 5728 5730 5730 5731 5728 5730 5726 5717 5717 5727 5725 5743 5755 5755 5768 5777 5774 5776 5782 5782 5786 5789
5607 5612 5616 5621 5623 5628 5633 5638 5641 5643 5646 5648 5651 5654 5658 5667 5674 5688 5705 5713 5716 5718 5718 5717 5716 5720 5717 5718 5719 5720 5711 5719 5736 5738 5740 5745 5751 5757 5761 5763 5764 5771 5779 5779 5779
5594 5600 5606 5611 5613 5616 5622 5626 5630 5633 5636 5638 5640 5644 5649 5655 5665 5687 5701 5707 5710 5711 5711 5714 5716 5713 5707 5710 5712 5711 5719 5724 5736 5738 5740 5741 5745 5754 5753 5757 5761 5764 5769 5774 5771
5581 5587 5593 5598 5601 5605 5609 5616 5619 5623 5627 5628 5629 5632 5638 5645 5651 5683 5689 5695 5700 5701 5702 5703 5704 5701 5698 5700 5709 5703 5720 5726 5736 5735 5733 5734 5743 5745 5752 5766 5768 5771 5770 5770 5767
5567 5572 5578 5584 5589 5593 5597 5603 5608 5613 5615 5616 5619 5620 5624 5632 5662 5679 5682 5684 5687 5690 5691 5693 5693 5695 5694 5698 5700 5699 5716 5721 5727 5728 5729 5730 5733 5735 5758 5763 5769 5769 5764 5763 5765
5552 5557 5561 5567 5575 5581 5587 5593 5596 5601 5605 5606 5606 5608 5612 5623 5665 5664 5670 5675 5676 5679 5681 5684 5686 5691 5690 5695 5695 5706 5710 5716 5718 5723 5724 5723 5728 5725 5763 5756 5761 5761 5763 5765 5763
5535 5542 5546 5551 5559 5567 5575 5581 5585 5590 5594 5596 5597 5598 5600 5645 5653 5654 5655 5662 5665 5666 5669 5677 5682 5680 5684 5685 5697 5698 5695 5706 5712 5719 5716 5719 5716 5726 5756 5750 5751 5754 5758 5761 5763
5518 5524 5529 5535 5543 5551 5558 5566 5572 5577 5581 5583 5583 5586 5605 5633 5638 5640 5646 5650 5656 5658 5659 5666 5670 5671 5672 5681 5682 5682 5684 5681 5715 5717 5718 5716 5714 5743 5744 5743 5744 5745 5748 5749 5751
5500 5506 5512 5518 5526 5534 5543 5550 5558 5564 5568 5568 5567 5576 5600 5624 5628 5633 5634 5639 5642 5646 5651 5654 5655 5656 5661 5660 5658 5664 5670 5675 5695 5713 5710 5708 5715 5741 5738 5735 5738 5739 5738 5739 5741
5481 5487 5493 5500 5508 5516 5525 5535 5542 5546 5552 5552 5555 5559 5598 5611 5619 5625 5622 5623 5625 5630 5632 5635 5636 5641 5647 5651 5656 5655 5660 5675 5687 5703 5698 5699 5705 5730 5732 5727 5730 5735 5730 5731 5733
5462 5467 5473 5480 5488 5495 5505 5516 5523 5527 5535 5560 5568 5580 5596 5604 5605 5611 5615 5611 5612 5611 5616 5621 5618 5636 5658 5660 5659 5656 5660 5669 5681 5690 5688 5695 5700 5713 5726 5720 5725 5726 5724 5724 5727
5440 5446 5452 5460 5467 5474 5480 5494 5514 5512 5524 5538 5550 5562 5575 5585 5581 5594 5605 5595 5600 5614 5610 5605 5625 5658 5649 5641 5640 5646 5650 5658 5662 5678 5675 5687 5696 5706 5713 5723 5726 5726 5721 5718 5720
5417 5424 5431 5438 5448 5454 5462 5475 5487 5486 5499 5527 5544 5549 5570 5566 5575 5586 5593 5595 5595 5592 5608 5614 5666 5643 5635 5634 5631 5644 5647 5652 5650 5659 5676 5669 5697 5706 5722 5715 5721 5722 5726 5722 5718
5388 5397 5406 5414 5424 5434 5447 5453 5464 5466 5468 5512 5529 5551 5555 5561 5563 5588 5591 5590 5589 5599 5601 5597 5640 5630 5628 5626 5630 5630 5651 5642 5638 5632 5641 5663 5673 5708 5701 5708 5710 5720 5716 5717 5711
5365 5371 5377 5385 5399 5414 5426 5434 5448 5443 5444 5519 5538 5553 5556 5553 5585 5576 5582 5581 5591 5590 5579 5616 5622 5616 5612 5633 5631 5641 5640 5632 5629 5624 5624 5650 5632 5686 5699 5699 5715 5720 5716 5713 5707
5349 5351 5355 5361 5376 5389 5402 5412 5420 5426 5452 5503 5525 5538 5540 5557 5576 5569 5568 5569 5582 5569 5577 5616 5623 5608 5629 5630 5624 5630 5619 5616 5612 5608 5598 5654 5631 5698 5689 5705 5715 5717 5711 5704 5700
5343 5343 5343 5349 5358 5364 5378 5386 5384 5412 5465 5490 5516 5529 5545 5552 5551 5554 5557 5549 5566 5555 5563 5607 5595 5601 5614 5608 5613 5613 5602 5582 5577 5576 5612 5641 5625 5697 5703 5709 5721 5719 5707 5697 5693
5339 5340 5339 5340 5343 5345 5350 5350 5368 5424 5451 5469 5509 5514 5521 5540 5539 5541 5545 5543 5559 5574 5578 5577 5578 5595 5618 5624 5618 5606 5604 5596 5588 5598 5624 5618 5635 5699 5699 5703 5704 5705 5703 5692 5686
5336 5330 5335 5336 5333 5331 5332 5330 5361 5412 5452 5470 5485 5487 5509 5523 5535 5529 5536 5556 5570 5575 5578 5584 5588 5619 5618 5617 5615 5600 5578 5638 5589 5588 5601 5626 5666 5681 5676 5675 5682 5688 5684 5684 5681
5327 5329 5334 5329 5327 5324 5322 5331 5349 5395 5420 5427 5448 5463 5501 5515 5511 5522 5525 5551 5559 5572 5596 5601 5583 5608 5610 5604 5599 5591 5615 5576 5583 5579 5587 5628 5648 5681 5661 5673 5679 5674 5678 5677 5671
5324 5324 5332 5327 5322 5317 5323 5332 5355 5385 5389 5393 5422 5448 5488 5493 5507 5514 5522 5545 5554 5567 5579 5591 5579 5590 5597 5590 5596 5592 5589 5585 5594 5592 5599 5613 5643 5687 5676 5670 5671 5675 5675 5669 5664
5320 5323 5327 5326 5323 5328 5337 5342 5365 5376 5385 5393 5407 5418 5431 5453 5462 5511 5514 5540 5563 5573 5556 5576 5568 5568 5580 5610 5612 5601 5591 5586 5574 5585 5600 5613 5640 5667 5671 5673 5671 5663 5661 5659 5653
5319 5321 5320 5326 5329 5332 5326 5335 5348 5359 5369 5377 5392 5403 5420 5430 5456 5477 5516 5547 5552 5555 5550 5565 5543 5548 5554 5566 5570 5582 5589 5594 5594 5571 5586 5594 5644 5656 5639 5643 5651 5654 5652 5645 5639
5317 5324 5324 5327 5334 5332 5333 5329 5340 5356 5361 5368 5383 5400 5408 5419 5441 5436 5456 5504 5536 5549 5553 5553 5551 5552 5570 5592 5601 5569 5581 5588 5584 5570 5599 5596 5653 5629 5626 5633 5633 5636 5634 5628 5622
5320 5330 5335 5333 5335 5337 5340 5342 5337 5342 5358 5370 5373 5385 5406 5407 5426 5432 5454 5469 5502 5536 5543 5536 5537 5553 5570 5587 5582 5588 5576 5583 5582 5589 5584 5624 5630 5648 5628 5621 5625 5627 5617 5614 5609
5328 5332 5332 5338 5345 5342 5341 5343 5343 5352 5355 5367 5377 5393 5390 5399 5419 5447 5460 5462 5451 5494 5530 5535 5524 5537 5547 5568 5564 5566 5574 5578 5584 5593 5594 5618 5620 5647 5620 5619 5615 5612 5608 5607 5600
5330 5331 5334 5345 5344 5344 5352 5358 5360 5360 5365 5375 5380 5373 5379 5400 5409 5422 5425 5450 5454 5455 5462 5483 5516 5523 5538 5555 5550 5538 5560 5566 5574 5593 5596 5591 5649 5616 5603 5606 5606 5604 5599 5597 5589